X

Important NEWS



New Hub Active

Miami is our new hub! Old members can request transfer via hr@dlxairways.net

Thank you very much and have nice flight.


Deluxe Airways.

X

Tours



Hello again, we created one nice test tour for all pilots to attend. also this is ment to be testing of our tour system

Available Tours

If you find some issues please inform us.

Thank you very much and have nice flight.


Deluxe Airways.

 METAR AND TAF INFORMATION
ArrayMETAR FOR LIRN
28994390 5 LIRN 140220Z 33002KT 7000 NSC 09/08 Q1026 NOSIG LIRN 2018-11-14T02:20:00Z 40.88 14.3 9.0 8.0 330 2 4.35 30.295275 TRUE MVFR METAR 72.0 LIRN 140150Z 33003KT 7000 NSC 10/09 Q1026 NOSIG LIRN 2018-11-14T01:50:00Z 40.88 14.3 10.0 9.0 330 3 4.35 30.295275 TRUE MVFR METAR 72.0 LIRN 140120Z 36003KT 7000 NSC 11/10 Q1026 NOSIG LIRN 2018-11-14T01:20:00Z 40.88 14.3 11.0 10.0 360 3 4.35 30.295275 TRUE MVFR METAR 72.0 LIRN 140050Z 32003KT 7000 NSC 12/10 Q1027 NOSIG LIRN 2018-11-14T00:50:00Z 40.88 14.3 12.0 10.0 320 3 4.35 30.324802 TRUE MVFR METAR 72.0

 AIRPORT MAP

 RUNWAY INFORMATION
Runway 06 Runway length 8622 ft Runway width 148 ft
Runway elevation 284 ft Runway displaced threshold 1309 ft Runway heading 58
Runway 24 Runway length 8622 ft Runway width 148 ft
Runway elevation 223 ft Runway displaced threshold 624 ft Runway heading 238

 AIRPORT FREQUENCIES
Type APP Name NAPOLI RAD Frequency 124.35 MHZ
Type ATIS Name ATIS Frequency 135.975 MHZ
Type DIR Name NAPOLI DIR Frequency 120.95 MHZ
Type GCCD Name NAPOLI GND Frequency 121.9 MHZ
Type OPS Name USN BASE O Frequency 118.275 MHZ
Type PMSV Name PMSV METRO Frequency 34.1 MHZ
Type POST Name ATOC Frequency 118.275 MHZ
Type TWR Name NAPOLI TWR Frequency 118.5 MHZ

 AIRPORT NEAR NAVIGATION AIDS
Type VOR-DME Name Pomigliano Frequency 117850 KHZ
Type NDB Name Pomigliano Frequency 351 KHZ



Powered by Virtual Airlines Manager [v2.6.2]

Template code change by DeluxeAir